Theta_e
314 314 313 313 314 313 314 314 314 315 315 316 316 314 314 314 313 314 314 312 313 314 315 315 315 316 316 316 316 317 316 315 315 315 316 316 316 317 317 317 317 316 316 315 315 314 314 314 314 315 315 315 315 315 315 315 315 315 315 315 315 315 315 315 315 315 315 315 315 316 316 317 318 319 318 317 318 318 318 317 319 322 322 325 328 328
313 313 313 313 314 314 313 314 314 314 314 315 315 315 314 314 314 314 314 312 312 313 315 315 315 315 316 316 316 317 316 316 316 316 316 316 316 317 317 317 318 318 317 315 315 315 315 315 315 315 314 315 315 315 315 314 315 315 315 315 315 315 315 315 315 315 315 315 315 315 316 316 317 318 317 317 318 318 318 317 317 319 322 327 329 329
313 313 313 314 314 314 314 314 314 314 315 314 315 314 313 314 314 313 313 312 312 313 314 316 315 315 316 316 316 317 317 317 317 317 316 316 317 317 317 318 319 318 316 315 316 316 316 315 315 315 315 315 315 315 315 315 315 315 315 315 315 315 315 315 315 315 315 315 315 315 315 315 315 316 316 316 316 317 317 317 317 319 322 326 328 328
313 313 313 314 314 313 313 313 313 314 314 314 315 313 314 316 314 312 313 312 312 312 313 315 315 315 316 316 316 317 317 317 317 317 317 317 317 317 318 318 318 317 316 316 316 316 316 316 315 315 315 315 315 315 315 315 315 315 315 315 315 315 315 315 315 315 315 314 315 314 315 315 315 316 315 315 315 315 316 316 316 317 319 323 325 325
313 311 311 313 313 313 313 313 314 313 313 315 316 315 315 317 315 314 315 313 312 312 312 313 313 314 315 315 316 317 316 317 317 316 316 315 316 316 316 316 316 316 316 315 316 315 315 315 315 315 315 316 315 315 315 315 315 315 315 315 315 315 315 315 315 315 315 314 315 314 315 315 315 315 315 315 315 315 316 316 316 316 316 318 319 322
313 309 309 312 313 313 314 313 314 314 312 314 317 317 316 316 315 315 315 313 313 313 314 314 312 312 315 316 316 316 315 315 315 314 314 314 314 314 313 313 314 314 314 315 315 315 315 315 315 315 315 315 315 315 315 315 315 315 314 314 313 314 314 315 315 315 315 315 315 315 315 315 315 315 315 315 315 315 315 316 316 316 316 317 317 321
311 307 309 314 313 315 315 313 315 316 312 312 316 318 315 315 316 316 316 314 313 313 314 313 312 311 314 316 316 316 314 314 315 314 314 315 315 314 313 313 313 313 313 314 313 314 314 314 314 314 315 315 315 315 315 314 314 314 314 313 313 313 313 314 315 315 315 315 315 315 315 315 315 315 315 315 315 315 316 316 316 316 317 317 317 318
310 308 311 314 314 315 315 313 315 316 312 314 318 318 315 315 317 317 316 315 314 314 313 313 315 313 312 315 316 315 314 314 315 314 314 315 316 316 315 314 313 313 313 313 313 313 313 314 313 313 314 314 314 314 314 314 314 314 313 313 313 313 313 313 314 314 315 315 315 315 315 315 315 315 315 315 315 316 316 316 316 316 317 317 317 318
312 312 313 314 315 315 315 315 317 315 314 316 316 317 316 316 318 318 317 315 315 314 313 314 316 312 311 315 316 314 314 314 315 315 316 317 317 317 315 314 313 313 313 313 313 313 312 313 312 313 313 313 313 313 313 313 313 313 313 313 312 313 313 313 314 314 314 315 315 315 315 315 315 315 315 315 315 316 316 316 316 316 316 316 317 317
312 312 312 314 315 315 313 313 315 317 315 314 314 315 316 317 318 317 316 315 315 314 313 315 315 312 311 313 315 314 313 314 315 315 317 317 317 316 315 314 313 312 312 312 313 313 313 312 312 313 313 313 313 313 313 314 313 313 313 312 312 312 312 313 313 314 314 315 315 315 315 315 316 316 316 316 316 316 316 316 316 316 315 316 316 316
311 309 310 313 313 312 311 310 312 316 315 314 315 316 315 315 315 315 315 314 314 314 314 314 315 313 311 312 315 316 313 314 316 316 317 317 316 315 314 313 313 312 311 311 312 312 312 312 312 312 313 314 314 314 313 313 313 313 313 313 313 313 313 313 314 314 315 315 315 315 316 316 316 316 316 316 316 316 316 316 315 315 315 315 315 315
312 310 311 312 310 310 312 312 311 313 314 315 317 315 314 314 314 313 314 313 314 314 312 311 313 314 311 312 314 315 312 313 315 315 316 316 315 315 314 313 313 313 312 311 311 311 312 312 313 314 314 314 314 314 314 314 314 314 314 314 314 314 314 314 315 315 315 315 316 316 316 316 316 316 316 316 315 315 315 315 315 315 315 315 315 314
314 312 312 312 309 311 314 313 311 312 314 316 315 313 313 313 314 314 314 314 314 313 310 309 312 313 312 312 314 314 313 312 314 316 316 316 315 314 313 313 313 314 314 313 313 313 314 314 315 315 315 315 315 315 315 315 315 315 315 315 315 315 316 315 316 316 316 316 316 316 316 316 316 315 315 315 315 315 315 315 315 315 315 315 314 314
314 313 312 313 311 311 314 313 312 312 312 314 314 313 313 313 314 315 314 314 314 312 308 309 311 312 312 313 314 314 314 313 314 315 315 314 314 313 313 313 313 314 315 315 315 315 315 315 315 315 315 315 316 316 316 315 316 316 316 316 316 316 316 316 316 316 316 316 315 316 316 315 316 316 316 316 315 315 315 315 315 314 315 314 314 314
315 314 312 314 313 311 313 314 315 315 313 314 316 315 313 314 315 315 314 315 314 312 309 309 311 312 312 313 313 313 312 312 313 312 312 311 311 311 312 313 313 314 315 315 316 316 316 316 316 316 316 316 316 316 316 316 316 316 315 316 316 316 316 316 315 315 315 315 315 315 315 315 315 315 315 315 315 315 315 315 314 314 314 314 314 313
314 314 313 312 311 312 313 314 315 315 314 314 316 315 314 314 314 312 312 312 312 312 311 310 311 312 313 313 313 313 312 311 311 311 310 311 311 310 312 313 314 314 314 315 315 315 315 315 316 316 315 315 315 315 315 315 316 316 315 315 315 315 315 315 315 315 315 315 315 315 315 315 315 315 315 315 315 315 315 314 314 314 314 313 313 313
314 314 312 311 310 310 310 312 313 313 314 314 313 314 313 314 314 311 310 309 309 311 313 312 312 312 313 314 314 313 312 311 311 311 311 312 312 311 313 315 314 314 313 314 314 314 314 315 315 315 315 315 315 315 315 315 315 315 315 315 315 315 315 315 315 315 315 315 315 315 315 315 315 315 315 315 315 315 315 314 314 314 314 314 313 313
314 314 312 312 313 310 307 309 311 310 312 313 313 313 312 312 313 311 311 311 310 311 312 312 312 311 311 313 314 313 312 312 312 311 312 313 312 312 314 315 314 313 313 313 314 314 314 314 314 315 315 315 315 315 315 315 315 315 315 315 315 315 315 315 315 315 315 315 315 315 315 315 315 315 315 314 315 314 314 314 314 314 314 314 313 313
315 314 313 312 313 311 308 310 312 310 310 312 312 313 313 312 312 311 312 313 312 313 312 311 311 311 311 312 313 313 313 313 313 312 312 313 313 312 314 316 314 313 313 313 314 314 314 314 314 315 315 315 315 315 315 315 315 315 315 315 315 315 314 314 314 314 314 314 315 314 315 315 315 315 314 314 314 314 314 314 314 314 314 314 314 313
315 314 314 311 311 312 311 311 313 312 311 310 310 312 312 313 313 312 312 312 312 312 312 312 311 311 313 313 313 313 313 313 313 313 313 313 313 313 314 316 315 313 313 313 314 314 314 315 314 315 315 315 315 315 315 315 315 315 315 314 314 314 314 314 314 314 314 314 314 314 314 315 314 314 314 314 314 314 314 314 314 314 314 313 313 313
314 313 314 312 311 312 312 312 314 314 313 310 311 311 311 312 311 312 313 312 312 312 312 313 312 311 313 314 314 313 314 314 314 314 315 314 313 313 314 315 314 313 313 314 314 314 314 314 315 315 315 315 315 315 315 315 315 314 314 314 314 314 314 314 314 314 314 314 314 314 314 314 314 314 314 314 314 314 314 314 314 313 313 313 312 312
313 312 314 313 312 313 313 313 312 314 314 313 312 312 312 313 312 312 314 312 311 311 311 312 312 312 314 314 314 313 313 314 314 315 317 315 314 314 313 313 314 313 314 314 314 314 314 314 314 314 315 315 315 315 314 314 314 314 314 314 314 314 314 314 314 314 314 314 314 314 314 314 314 314 314 314 314 314 313 313 313 312 312 312 312 312
314 315 316 314 313 313 313 311 308 309 313 313 312 313 313 313 313 313 314 313 311 310 310 311 311 313 314 312 312 312 312 310 310 312 316 315 313 313 313 313 314 314 314 314 314 314 314 314 314 314 315 315 314 314 314 314 314 314 314 314 314 314 314 314 314 314 314 314 314 314 314 314 314 314 313 313 313 313 312 312 312 312 312 312 312 311
313 316 316 314 313 312 311 311 309 309 312 313 312 313 313 314 315 314 313 313 313 311 310 311 312 313 314 311 309 309 309 308 306 307 313 315 314 313 313 313 314 313 313 313 313 314 314 314 314 314 314 314 314 314 314 314 314 314 314 314 313 313 313 314 313 314 314 314 314 314 314 314 313 313 313 313 312 312 312 311 311 311 311 311 311 310
312 315 315 314 314 314 313 313 312 312 312 312 313 313 313 315 315 313 311 312 313 314 314 312 312 313 315 311 309 308 308 308 307 306 310 314 314 314 314 314 313 313 313 313 313 313 314 314 314 314 314 314 314 314 314 314 314 314 313 313 313 313 313 313 313 313 313 314 314 314 313 313 313 312 312 312 311 311 311 311 310 310 310 309 308 308
313 314 314 314 315 315 314 315 315 314 313 312 314 315 314 314 314 313 312 313 313 315 316 313 312 313 312 310 309 310 308 309 309 307 308 312 314 314 313 313 313 313 313 313 313 313 313 314 314 314 314 314 314 314 314 314 313 313 313 313 313 313 313 313 313 313 313 313 313 313 313 312 312 311 311 310 310 310 309 309 308 308 307 306 306 305
315 315 313 314 314 314 314 315 315 316 315 315 316 316 315 315 315 314 314 313 313 315 316 314 313 313 312 310 310 310 310 309 310 309 307 310 314 313 313 312 312 312 313 313 313 313 313 313 314 314 314 313 314 313 313 314 313 313 313 313 313 313 313 313 313 313 313 312 313 312 312 311 311 310 310 309 308 308 307 307 306 306 305 304 303 303
315 314 313 314 314 314 314 316 318 318 317 317 317 316 316 315 315 315 314 314 314 315 314 315 316 315 314 312 311 312 311 310 311 310 308 310 313 313 312 312 311 311 312 312 313 313 313 314 313 313 313 313 313 313 313 313 313 313 313 313 313 312 312 312 312 312 312 312 312 311 310 310 309 308 308 307 306 306 306 305 304 304 303 302 302 302
314 312 313 315 315 315 316 318 319 318 317 317 317 317 317 316 315 315 314 315 315 315 314 315 316 316 315 313 312 313 313 312 312 311 309 311 313 313 312 311 311 311 312 312 313 313 313 313 313 313 313 313 313 313 313 313 312 312 312 312 312 312 312 312 312 311 311 310 310 309 308 307 307 306 305 305 304 304 303 303 302 302 302 302 302 303
312 312 314 315 314 315 317 318 318 317 317 318 317 317 318 316 315 315 314 314 315 315 315 314 316 316 315 314 314 313 314 313 312 311 310 311 313 312 312 311 311 312 312 313 313 313 313 313 313 313 313 313 313 313 312 312 312 312 312 311 311 311 311 311 310 310 309 308 307 306 305 305 304 303 303 302 302 301 301 301 301 302 302 302 302 301
311 313 315 314 314 314 315 318 318 317 318 317 317 319 319 317 316 315 314 314 314 314 315 315 316 316 316 315 315 313 312 311 311 310 310 311 312 312 311 311 311 312 312 313 313 313 313 313 312 312 312 312 312 312 312 311 311 311 311 311 311 310 309 309 308 307 306 305 304 303 302 302 301 301 301 301 301 301 301 302 302 301 301 300 300 299
311 313 314 313 313 313 314 317 318 316 315 315 317 319 319 318 317 315 315 314 314 314 315 316 316 315 315 315 315 312 311 311 311 311 310 311 311 312 311 311 312 312 312 312 313 313 312 312 312 312 312 312 312 311 311 311 310 310 310 310 309 308 307 306 304 304 303 301 301 300 300 300 300 300 301 301 301 301 301 301 300 299 298 298 297 297
310 311 313 313 313 313 315 316 316 314 312 312 314 316 317 317 316 315 315 314 314 314 315 315 316 315 315 315 315 314 313 312 311 310 310 311 311 311 311 311 312 312 312 312 312 312 312 312 312 312 312 312 311 310 310 310 310 309 308 308 306 305 303 302 301 300 300 299 299 299 300 300 300 300 301 301 300 300 299 298 298 297 297 296 296 296
311 312 312 312 312 313 314 315 314 313 312 312 313 314 315 315 315 315 315 314 314 314 314 314 314 314 315 314 313 314 314 313 312 311 311 311 311 311 311 311 311 312 312 312 312 312 312 311 312 311 311 311 310 310 309 308 307 307 305 304 302 300 300 299 299 299 299 299 299 300 300 300 300 300 300 299 299 298 297 297 296 296 296 296 296 295
312 312 311 312 311 312 312 312 312 312 312 312 312 313 313 314 314 315 316 314 314 314 314 314 314 314 314 314 313 313 313 312 312 311 311 311 311 311 311 311 311 312 312 312 312 311 311 311 311 311 310 310 309 308 307 306 304 304 302 300 299 298 299 299 299 299 299 299 299 300 299 299 299 299 298 298 297 297 296 296 296 296 296 295 295 295
312 311 311 311 312 311 310 311 312 313 313 312 312 313 313 313 314 315 315 315 314 314 314 314 314 314 314 314 313 313 312 312 311 311 311 311 310 310 311 311 312 312 312 312 312 311 311 311 311 310 310 309 307 306 305 303 302 301 299 298 298 298 298 298 298 298 298 299 299 299 299 298 298 298 297 297 296 296 296 296 295 295 295 295 295 295
311 311 311 312 312 312 311 312 312 313 314 313 313 313 313 313 313 313 314 314 313 314 314 314 314 314 314 314 313 312 311 311 312 311 311 310 310 310 310 311 312 312 311 311 311 311 311 311 310 309 308 307 305 304 302 301 300 299 298 298 298 298 298 298 298 298 298 298 298 298 298 298 297 297 296 296 296 295 295 295 295 295 295 295 295 294
311 312 312 312 312 312 312 312 312 313 313 313 314 313 312 312 313 313 314 313 313 313 314 314 313 313 314 314 312 310 310 311 312 312 311 311 311 310 309 309 310 310 310 310 310 311 310 310 309 308 306 305 303 301 300 299 299 299 298 298 297 297 297 297 297 298 298 298 298 297 297 296 296 296 295 295 295 295 295 295 295 294 294 294 294 294
311 311 311 312 312 312 312 312 313 313 312 313 315 314 312 312 313 314 314 313 313 313 313 314 313 313 313 313 310 310 311 312 312 312 311 311 311 310 310 309 308 309 309 309 310 310 310 309 308 306 304 302 301 300 299 299 298 298 298 297 297 297 297 297 297 297 297 297 297 296 296 295 295 295 295 295 294 294 294 294 294 294 294 293 293 293
311 310 310 311 312 312 312 312 312 312 314 317 317 314 312 312 313 313 313 313 313 312 313 314 313 313 313 312 310 310 312 312 312 312 311 311 311 310 310 309 308 308 308 308 308 309 308 307 305 303 301 300 299 299 298 298 298 297 297 297 297 297 297 297 297 297 296 296 296 295 295 295 295 294 294 294 294 294 294 294 293 293 292 292 292 292
311 311 310 311 312 312 312 313 312 312 316 320 316 311 311 312 313 313 313 313 313 313 313 313 313 313 313 312 311 310 311 311 311 311 311 311 311 310 309 308 308 307 307 307 307 307 306 305 302 301 300 299 298 298 297 297 297 296 297 296 296 297 297 297 296 296 296 295 295 295 295 294 294 294 294 294 294 293 293 292 292 292 291 291 291 291
312 312 312 311 312 312 312 313 312 312 315 316 311 308 310 313 313 313 313 312 313 313 312 312 312 312 312 312 311 311 310 310 310 310 310 310 310 310 309 308 307 306 306 306 306 305 304 302 300 299 299 298 298 297 297 297 297 296 296 296 296 296 297 297 296 296 295 295 295 294 294 294 294 294 293 293 293 292 292 291 291 291 291 291 291 290
312 312 312 312 312 312 313 313 314 314 314 312 309 309 311 312 313 313 311 311 312 312 312 311 311 311 311 311 311 310 310 309 309 308 308 309 309 309 308 307 306 306 305 304 304 303 302 301 299 299 298 298 297 296 296 296 296 296 296 296 297 297 297 297 296 295 295 295 294 294 294 293 293 293 292 292 291 291 291 291 290 290 290 290 290 289
312 313 314 313 312 313 313 314 314 313 311 310 311 311 311 311 312 311 311 311 312 312 312 312 311 310 310 310 310 310 309 308 308 308 307 308 308 307 306 305 305 304 304 303 302 300 299 299 299 298 297 296 296 296 296 296 296 296 297 297 297 297 296 296 295 295 294 294 294 293 293 293 292 292 291 291 291 290 290 290 290 290 289 289 289 289
312 312 313 313 313 313 314 314 313 311 309 310 312 312 310 310 311 311 311 311 311 312 312 312 312 311 310 309 309 309 308 308 307 306 306 306 306 305 305 304 303 303 302 301 300 299 298 298 298 297 296 296 296 296 296 296 296 296 297 297 297 296 295 295 294 294 294 293 293 293 292 291 291 290 290 290 290 290 290 289 289 289 289 289 288 288
309 309 310 312 313 313 312 312 312 310 309 310 310 310 310 310 310 311 311 312 311 311 312 312 312 312 311 311 310 309 308 307 306 305 305 305 304 304 303 303 302 301 301 300 299 298 298 297 296 296 296 296 296 296 296 296 296 296 296 296 295 295 294 294 293 293 293 292 292 291 291 290 290 290 290 289 289 289 289 289 289 289 288 288 288 288
307 306 309 312 313 313 313 312 311 310 309 309 309 309 309 309 310 310 311 311 311 311 311 311 311 311 311 311 310 309 308 307 306 305 305 304 304 303 302 302 301 300 299 299 299 298 296 295 295 295 295 295 295 295 295 295 296 296 295 295 294 294 294 293 293 292 292 291 290 290 290 290 289 289 289 289 289 289 289 288 288 288 288 288 287 287
308 307 310 311 311 312 312 311 309 308 307 307 309 309 308 309 310 309 310 311 311 311 311 311 311 311 311 310 309 308 308 306 306 306 305 304 304 303 302 301 300 299 299 298 297 296 295 295 295 295 295 295 295 295 295 295 295 295 294 294 293 293 293 292 292 291 290 290 290 289 289 289 289 289 289 289 288 288 288 288 288 288 288 287 287 287
307 307 310 311 310 311 311 308 306 306 307 307 308 309 309 310 310 310 310 311 311 311 311 310 310 310 310 309 309 308 307 307 306 306 306 305 304 303 302 301 300 299 298 297 295 295 295 295 295 295 295 295 295 295 295 295 294 294 294 293 293 293 292 291 291 290 290 289 289 289 289 289 289 289 288 288 288 288 288 288 288 288 288 287 287 287
306 308 309 309 310 311 310 308 307 308 309 308 308 309 310 310 310 310 310 310 310 310 310 310 309 309 309 309 309 308 308 307 306 306 306 305 305 304 302 301 299 298 297 296 295 295 295 295 295 295 295 295 295 294 294 294 294 293 293 293 292 292 291 290 290 289 289 289 289 289 289 288 288 288 288 288 288 288 288 288 288 287 287 287 287 287
306 308 308 308 309 310 309 308 307 308 309 308 308 308 308 308 309 309 309 310 310 309 309 309 309 309 309 309 308 308 308 308 307 307 306 305 304 303 301 300 299 297 296 295 295 295 295 295 295 294 294 294 294 294 294 293 293 293 293 292 291 291 290 289 289 289 289 289 289 288 288 288 288 288 288 287 287 287 288 288 288 287 287 287 287 287
Wind_Speed
10 7 7 9 9 12 13 13 8 1 3 9 10 10 7 6 6 5 6 3 2 4 10 13 13 13 13 12 12 11 11 11 11 12 13 13 13 13 13 13 14 16 19 20 22 24 23 24 25 26 27 28 27 26 26 26 26 26 26 26 26 26 26 26 26 26 26 26 26 25 23 21 20 19 20 21 20 20 21 21 21 21 21 20 20 21
8 7 9 12 10 10 12 10 4 0 3 6 7 8 7 7 4 4 5 4 2 3 7 9 10 14 14 12 13 14 12 12 14 15 17 17 16 16 15 16 15 15 18 22 23 23 22 23 24 26 28 29 29 29 28 27 27 27 27 27 27 27 27 27 26 27 27 26 27 26 24 23 21 20 20 21 20 19 20 20 21 21 20 18 19 22
7 9 11 11 5 4 4 4 4 4 4 5 5 6 7 5 3 4 4 5 4 3 3 3 7 11 13 13 14 15 15 16 16 16 17 18 17 18 16 15 16 18 21 24 24 24 23 23 23 24 26 27 28 28 28 27 28 28 28 28 28 28 28 27 27 27 27 26 26 26 25 24 23 22 22 22 21 20 19 19 20 20 18 18 19 23
7 7 7 7 8 6 3 4 6 6 5 5 5 6 5 5 5 3 5 6 4 4 2 3 6 9 11 12 13 17 18 16 15 15 16 18 20 19 17 15 16 20 24 25 26 25 25 25 25 25 25 26 27 27 27 27 27 28 28 28 28 28 28 27 27 26 26 26 26 25 25 24 24 23 23 22 21 20 19 19 20 21 20 19 20 21
6 1 0 4 7 9 7 7 9 7 6 6 6 6 4 6 5 1 5 7 3 4 3 4 6 8 10 12 12 11 11 12 12 13 16 20 25 25 23 23 23 24 26 26 27 26 26 26 27 27 27 27 28 27 27 26 27 27 27 28 28 28 29 28 28 27 26 27 26 26 25 25 24 23 22 21 21 20 20 20 20 21 21 21 20 19
4 1 1 4 6 9 9 8 10 8 7 6 7 8 3 3 5 5 7 6 2 5 5 3 6 6 6 12 13 6 5 8 10 10 14 16 20 23 25 26 26 27 28 28 29 29 28 29 29 29 30 29 29 29 29 29 29 28 28 28 29 30 30 29 29 28 27 27 26 26 26 25 24 22 21 20 20 20 20 21 20 20 20 21 20 20
2 2 2 5 7 7 7 7 9 9 8 6 4 6 3 0 3 7 7 5 3 2 2 3 6 5 3 7 9 6 5 8 8 8 12 12 12 15 18 20 22 24 26 27 28 29 30 30 30 30 31 31 31 32 31 30 30 30 29 29 29 30 31 31 30 29 27 27 26 26 25 24 22 21 20 19 19 19 20 20 20 20 20 20 21 21
4 5 2 5 7 7 7 7 8 10 9 3 1 2 5 4 5 8 7 6 3 1 2 3 5 5 5 4 5 5 5 7 9 9 10 10 9 9 11 15 18 21 22 23 24 26 28 28 28 29 30 30 32 32 32 31 31 31 30 29 28 28 28 28 28 27 26 24 24 23 21 21 20 19 19 18 18 19 19 19 20 20 20 20 21 21
4 6 6 8 8 7 6 2 5 11 8 1 2 1 4 4 5 7 6 5 1 1 3 6 4 4 7 4 4 4 5 9 10 11 10 9 8 7 8 12 16 18 19 20 20 22 24 25 24 24 24 25 27 29 29 29 29 29 29 29 28 26 25 24 24 23 22 20 19 18 17 17 17 16 16 17 18 18 18 19 19 19 19 20 20 21
2 2 3 6 6 5 3 5 2 5 4 3 3 3 5 3 2 4 5 4 2 4 7 6 7 5 6 5 5 4 5 9 9 8 8 8 6 5 5 9 12 14 16 17 19 22 22 22 20 19 19 20 21 22 22 22 22 23 24 25 25 23 22 20 20 19 17 17 16 15 15 14 14 14 15 16 17 17 17 17 17 17 19 19 20 20
2 2 1 1 1 1 5 6 6 3 4 8 7 6 6 3 3 2 3 2 4 6 5 3 3 4 5 5 5 3 2 4 5 5 6 6 6 4 3 6 8 10 12 14 17 20 20 19 18 17 16 16 16 16 17 16 17 17 18 18 18 17 17 16 16 15 15 15 14 13 12 12 12 13 14 14 14 14 15 16 16 17 18 19 19 20
3 3 2 2 2 2 4 5 6 3 5 6 5 6 5 3 3 3 3 3 6 6 1 2 1 3 6 5 2 1 2 2 2 4 6 6 6 4 2 2 5 7 9 11 14 16 17 18 18 17 16 15 15 15 15 15 15 15 15 15 14 14 14 13 13 13 13 12 10 10 9 9 10 10 11 11 12 12 14 14 15 16 17 18 18 19
4 3 2 3 1 4 4 5 5 1 3 3 5 8 5 4 4 5 5 5 6 3 2 1 0 3 7 8 6 5 3 3 2 1 4 6 5 4 2 1 3 6 8 10 13 15 17 18 18 18 17 17 16 16 16 16 16 16 16 16 15 15 14 13 12 11 10 9 7 6 5 5 5 6 7 8 9 10 12 13 14 15 16 17 18 18
3 1 3 3 2 6 7 5 5 4 6 7 8 8 7 6 5 6 6 5 6 1 2 1 1 3 6 7 9 9 4 5 6 3 4 6 5 3 2 2 4 8 10 13 15 18 19 20 19 19 19 18 18 18 19 18 19 18 18 17 16 15 14 13 12 10 9 8 6 5 3 2 2 3 4 6 7 9 10 12 13 14 15 16 17 18
6 3 5 4 3 7 8 3 1 4 8 7 4 4 6 6 5 5 5 5 4 2 1 2 2 5 4 0 2 2 2 4 8 7 4 4 4 2 3 6 6 9 13 16 18 20 21 21 21 21 21 21 21 21 21 20 20 19 19 18 17 16 15 13 12 10 9 7 6 4 2 1 1 3 4 5 7 8 9 10 11 12 13 15 16 17
7 3 2 1 1 5 5 1 2 2 6 3 1 2 5 4 1 1 1 1 1 1 2 4 3 5 3 2 3 5 4 4 7 8 6 4 4 3 5 7 8 10 15 18 20 21 22 23 23 23 23 23 23 23 22 22 22 21 20 19 17 16 14 13 11 9 8 6 4 3 1 0 2 3 4 6 7 8 9 9 10 11 11 13 14 16
7 2 2 2 2 1 1 2 2 1 3 2 2 3 2 1 2 2 1 2 0 4 3 5 4 5 4 6 5 6 6 6 7 7 7 6 6 5 6 8 10 14 18 21 22 24 25 25 25 25 25 25 24 24 24 23 22 21 19 18 16 15 13 12 10 8 7 5 3 2 1 2 3 4 5 6 7 8 9 9 10 10 10 11 11 13
5 2 2 1 2 3 3 2 2 3 1 2 3 4 2 1 1 1 2 1 2 5 3 4 6 6 4 4 2 5 6 8 8 7 7 8 8 7 8 11 15 18 21 23 24 25 25 25 25 25 25 25 25 24 23 21 20 18 17 16 14 13 11 10 8 6 5 4 3 3 3 4 4 5 6 7 8 8 9 9 9 9 9 9 10 10
4 3 1 2 1 3 2 1 2 0 1 0 2 1 2 2 3 3 3 3 4 6 4 5 7 6 5 4 2 5 8 9 9 9 9 10 10 10 11 14 18 21 23 24 25 26 25 25 25 24 24 24 23 22 20 19 18 16 15 14 12 11 9 8 7 5 4 4 4 4 5 5 6 6 7 8 8 9 9 9 9 9 9 9 8 8
3 2 1 1 1 3 2 2 5 5 2 0 2 1 0 1 3 3 4 4 4 5 5 4 5 4 6 7 7 7 9 10 13 12 10 11 13 14 15 17 21 24 25 25 26 26 26 25 25 24 23 22 20 19 18 17 16 14 13 12 11 9 8 7 6 5 4 4 5 5 6 6 7 8 8 8 9 9 9 9 9 8 8 7 7 7
2 1 2 2 1 2 3 4 5 5 5 4 4 5 4 2 1 1 3 3 3 5 6 5 5 4 3 6 9 10 7 8 12 12 9 10 14 16 18 22 26 27 27 27 28 27 26 25 24 23 22 20 19 18 17 17 15 13 12 11 10 8 7 6 6 5 5 5 5 6 6 7 8 8 9 9 9 9 8 8 7 6 5 5 6 7
3 2 3 4 3 4 2 0 1 0 2 4 5 7 7 6 3 3 4 3 1 3 4 4 5 3 1 2 5 6 2 1 3 6 7 10 13 16 21 26 29 30 30 30 29 28 26 25 23 22 21 20 20 19 17 16 15 13 12 10 9 8 7 7 6 6 6 6 7 7 7 8 8 8 8 8 8 7 6 5 4 3 4 5 6 7
2 2 4 3 3 2 1 2 2 0 0 2 3 4 5 6 6 6 6 4 3 2 1 2 4 3 1 1 2 0 3 3 1 1 5 11 16 18 23 28 31 33 33 32 30 28 26 25 24 23 22 21 20 19 18 16 15 13 12 11 10 9 8 7 7 7 7 7 8 8 7 8 8 8 8 7 6 5 3 2 3 4 5 6 7 8
2 3 4 3 2 1 0 2 2 1 1 3 4 4 5 6 6 5 2 1 3 4 3 3 5 4 0 1 1 2 1 1 1 3 4 9 14 19 24 29 32 34 34 32 31 28 26 25 25 24 23 22 21 19 18 16 15 13 12 11 10 9 9 8 8 7 7 7 8 8 8 8 8 7 6 5 3 2 2 3 5 5 6 7 8 8
4 4 4 4 3 2 3 3 2 3 3 5 6 6 8 6 2 1 1 3 3 6 7 6 7 5 1 1 0 1 1 2 3 5 7 8 12 19 26 30 33 34 34 33 31 29 27 27 26 25 24 23 21 19 17 16 14 14 13 12 11 10 9 9 8 8 8 9 9 9 9 8 7 6 4 3 2 2 3 4 5 6 6 7 8 8
7 4 6 6 5 6 6 6 6 5 4 4 4 5 9 9 6 4 4 5 5 6 8 7 7 6 1 1 2 2 3 4 4 7 11 9 12 20 27 30 33 34 34 33 32 31 29 28 27 26 24 23 21 19 17 16 15 14 13 12 11 10 10 10 10 9 10 10 9 9 8 7 5 4 3 2 2 3 3 4 5 6 6 7 8 8
4 2 8 10 10 10 10 10 8 7 6 7 10 11 12 14 13 9 5 6 8 7 6 8 10 11 6 4 6 5 5 7 6 7 11 10 12 20 27 30 32 33 34 34 33 32 30 29 27 26 24 23 21 19 17 16 15 14 13 12 12 11 11 11 11 10 10 10 9 8 7 6 5 4 3 2 2 3 4 5 6 7 7 8 9 10
3 4 9 11 13 13 13 12 11 11 10 12 15 16 15 15 14 11 8 10 11 8 7 10 12 14 12 7 8 8 8 8 7 9 13 13 15 20 26 29 30 31 31 32 32 31 30 29 28 27 26 24 22 19 18 16 16 15 14 13 13 12 12 12 11 11 10 10 9 8 7 6 5 4 3 2 2 4 5 6 7 8 9 10 11 13
2 8 9 9 12 12 7 5 7 10 11 11 13 13 14 15 14 13 13 14 13 9 10 14 15 16 14 11 10 10 9 9 8 10 12 14 16 21 26 28 29 30 31 32 31 31 31 31 30 28 26 24 22 19 18 17 16 15 14 14 14 14 13 13 12 12 11 10 9 8 7 6 4 3 2 2 3 4 5 6 8 9 11 12 14 16
2 7 9 9 10 12 7 5 6 9 9 10 12 11 11 13 14 15 15 16 16 14 14 18 19 16 11 10 10 9 10 10 8 7 11 15 21 25 28 29 30 31 32 32 33 33 32 31 30 28 25 23 21 19 18 18 17 16 16 15 15 15 14 13 13 12 11 10 9 8 6 5 4 3 2 3 4 5 7 8 10 12 14 16 18 20
2 5 10 9 6 10 8 5 5 7 8 10 11 8 8 11 13 14 13 15 16 16 17 19 17 14 9 8 9 7 9 10 8 9 13 18 24 28 30 31 32 34 34 34 34 34 33 31 29 27 25 23 21 20 19 18 17 17 16 16 15 15 14 14 13 12 11 10 8 7 5 4 3 3 3 5 6 8 10 12 14 16 18 20 22 23
3 2 5 7 6 9 9 7 7 5 3 7 7 6 9 10 11 12 13 15 15 15 17 16 13 12 9 7 8 7 9 8 8 11 14 17 23 30 33 34 36 37 36 36 36 35 34 32 29 27 25 23 22 21 20 18 18 18 17 17 16 16 15 15 13 12 10 9 8 6 4 4 3 4 5 7 9 11 13 16 18 20 21 23 24 25
5 4 4 7 8 10 10 8 6 5 2 7 7 10 13 12 12 13 13 15 15 14 14 12 12 12 6 6 8 6 7 8 9 15 18 19 24 32 37 38 39 39 38 38 38 37 34 31 29 27 26 24 23 21 20 19 19 18 18 17 17 17 16 14 12 10 9 8 6 5 3 4 5 7 8 10 13 15 17 19 21 22 24 24 25 26
6 6 5 6 6 8 5 5 4 5 8 10 10 13 16 16 16 14 13 15 16 15 13 12 13 12 5 7 10 8 9 13 18 23 25 24 26 32 37 38 38 38 39 38 38 36 33 31 29 28 26 25 23 21 20 20 19 18 18 18 18 17 15 12 10 8 7 6 4 3 4 6 8 10 12 14 16 18 20 21 23 24 25 26 26 28
9 7 5 6 5 3 4 6 5 9 12 12 11 12 16 18 16 13 14 17 17 18 19 18 17 13 7 9 13 14 17 23 26 27 27 25 26 30 35 38 38 39 39 39 37 35 33 32 31 29 27 24 23 22 21 21 20 19 18 18 16 14 12 10 8 6 5 4 3 5 6 9 11 12 15 16 18 20 21 22 24 25 27 28 29 30
8 7 5 6 5 2 4 7 7 6 6 7 6 7 10 13 13 13 15 18 18 18 18 17 18 17 14 14 15 16 18 19 20 24 27 26 25 28 32 37 40 42 41 40 39 37 35 34 31 29 27 25 24 23 22 21 20 19 18 16 14 11 9 7 6 4 4 4 5 7 9 11 13 15 17 18 20 21 23 24 26 28 29 31 32 33
6 7 6 6 6 4 4 7 6 5 3 5 6 7 10 11 12 13 13 14 15 15 15 15 16 18 19 18 15 13 12 9 9 17 26 29 26 26 28 33 38 41 40 38 37 36 35 33 30 28 27 26 25 24 22 21 20 18 16 14 12 10 8 6 4 4 4 5 7 9 11 13 15 17 18 20 22 23 24 26 27 29 30 32 33 34
4 5 6 7 6 5 6 7 6 6 9 10 7 7 11 12 11 11 9 10 10 15 20 18 15 17 18 15 11 13 10 5 4 13 26 31 29 27 27 28 32 36 38 38 36 36 35 32 30 28 27 26 25 24 22 21 19 18 15 13 11 8 6 5 4 4 5 7 9 11 13 15 16 18 19 21 22 24 25 27 28 29 31 33 34 35
2 1 3 5 6 6 7 8 7 8 11 10 4 7 11 15 10 7 5 9 12 18 23 19 16 19 20 14 14 14 7 4 5 15 28 32 32 32 30 28 29 31 34 37 37 37 35 32 30 29 27 27 25 23 22 20 18 16 14 11 9 7 5 5 4 5 7 9 10 12 14 16 17 19 20 21 23 24 26 27 28 30 31 32 33 35
4 3 4 6 7 8 7 7 6 7 8 5 6 7 13 18 15 9 6 12 12 15 21 21 20 22 22 19 18 12 8 10 12 18 25 26 28 31 30 28 28 29 31 35 36 36 35 32 31 30 28 27 25 23 21 19 17 15 12 10 8 6 4 4 4 6 8 10 12 13 15 16 18 19 21 22 24 25 26 27 28 29 30 31 33 34
5 4 5 7 8 9 9 8 6 6 5 4 7 12 19 20 12 8 9 6 3 11 19 24 24 25 24 22 21 16 18 22 20 17 17 17 21 27 28 27 27 28 31 35 36 35 33 31 31 30 28 26 24 22 20 18 16 13 11 9 7 5 4 4 6 7 9 11 12 14 15 17 19 20 21 23 24 25 25 26 28 29 30 32 34 35
5 5 6 7 8 8 8 7 6 8 7 7 8 14 20 14 5 7 6 2 5 10 16 21 24 26 26 24 26 27 26 24 21 16 14 15 19 25 27 27 28 29 32 34 34 33 32 32 30 29 27 25 23 21 19 17 14 12 10 7 5 4 3 5 7 9 10 12 13 14 16 17 19 20 21 22 23 24 25 26 27 29 31 33 35 37
7 6 6 6 7 6 5 7 7 9 5 18 17 8 8 5 2 4 7 3 3 7 10 14 18 22 22 21 25 28 24 21 20 18 16 17 19 23 26 28 29 31 32 33 33 32 32 31 30 28 26 24 22 20 17 15 13 11 8 6 4 4 5 7 8 10 11 12 14 15 16 17 19 20 20 21 22 23 25 26 28 30 32 34 36 38
8 8 6 5 7 7 6 8 6 3 8 25 20 6 11 12 3 4 7 6 5 6 9 11 14 17 18 18 21 25 23 22 22 20 20 21 22 24 27 28 29 32 33 34 34 33 32 31 29 27 25 23 21 19 16 14 12 9 7 5 4 5 7 8 9 11 12 13 14 15 16 17 18 19 19 21 22 23 25 27 29 31 33 35 36 38
9 9 5 5 7 7 5 6 4 3 14 23 12 6 19 25 13 5 8 6 5 6 6 6 7 10 13 15 18 22 24 24 23 23 23 24 25 26 28 29 31 33 34 34 33 32 31 29 27 25 23 21 20 17 15 13 10 8 6 5 5 6 8 9 10 11 12 13 14 15 16 16 16 18 19 20 22 24 26 28 31 32 34 36 37 39
3 4 3 2 4 4 4 8 7 4 11 15 7 3 17 26 20 11 8 8 7 5 3 4 6 9 11 14 17 21 25 25 24 23 23 24 26 28 30 31 33 33 33 33 33 31 29 27 25 24 22 20 18 16 14 11 9 7 6 6 7 8 9 10 10 11 12 13 13 14 15 15 16 18 19 21 23 26 28 30 32 34 35 37 38 40
1 3 3 3 4 5 7 12 12 8 7 11 10 7 10 18 22 20 14 11 9 8 9 9 10 11 14 17 19 21 24 25 24 25 26 27 28 30 32 32 33 33 33 32 31 30 28 26 24 23 21 18 16 14 12 10 8 7 7 7 8 9 9 10 10 11 11 12 13 13 14 16 17 19 21 23 25 26 28 30 32 34 36 37 39 41
3 5 5 4 6 6 6 6 6 6 6 8 11 12 11 13 18 21 21 19 17 17 17 16 14 14 15 17 19 21 23 25 26 26 28 29 30 31 33 34 34 34 33 32 30 28 27 25 22 20 18 17 15 13 11 10 8 8 8 9 9 9 10 10 10 11 11 12 13 14 15 17 19 21 23 24 26 28 29 31 33 34 36 38 40 42
3 5 5 4 5 6 5 2 2 1 2 5 9 14 14 13 13 15 18 20 20 21 22 21 18 16 16 17 20 22 23 25 26 26 27 30 31 33 34 35 35 34 33 31 29 27 25 23 21 19 17 15 14 12 11 9 9 9 9 9 9 10 10 10 10 11 11 12 13 15 17 19 21 22 24 26 27 29 30 32 33 35 37 38 40 42
3 4 4 4 5 6 4 5 6 2 2 5 9 13 17 18 18 19 20 21 21 22 22 21 18 16 16 17 20 22 23 24 25 26 28 30 32 34 36 36 36 35 33 31 29 26 24 21 19 17 16 14 13 12 11 10 10 10 10 10 10 10 10 10 11 11 12 13 15 16 18 20 21 23 25 27 29 30 31 33 34 36 38 40 41 42
6 6 5 5 7 5 1 5 9 7 5 5 6 9 12 15 20 23 24 24 24 23 21 20 19 18 18 19 20 21 22 22 23 26 29 31 33 35 37 37 37 35 33 31 28 25 23 21 19 17 15 14 13 12 11 11 11 10 10 10 10 11 11 11 11 11 12 14 15 17 18 20 22 24 26 28 30 32 34 36 37 38 40 41 42 43
Wind_Direction
179 185 199 209 208 204 208 213 215 242 224 205 198 212 221 214 208 161 104 106 197 219 220 226 237 245 249 245 239 225 203 209 233 243 250 247 241 236 229 228 228 232 236 235 233 234 236 238 236 233 231 230 231 232 234 234 234 234 236 237 237 237 238 240 242 244 246 249 251 251 250 250 250 251 255 257 257 255 256 257 255 255 258 258 260 265
184 207 209 208 213 204 204 210 207 221 225 217 211 209 219 222 200 115 104 120 140 236 232 224 242 251 253 254 250 242 228 225 227 233 244 245 242 239 234 233 231 233 239 241 241 240 240 240 237 235 233 232 233 233 233 233 234 234 236 237 238 238 239 239 241 243 246 248 251 252 253 255 255 255 256 257 258 259 260 260 258 258 257 253 254 261
192 221 214 195 172 146 166 185 208 236 232 231 225 216 225 210 155 109 116 127 143 223 235 214 252 258 256 256 252 244 241 240 234 231 236 238 239 239 236 235 234 239 245 246 246 244 242 240 238 236 233 232 233 233 232 231 232 234 235 236 238 239 240 240 241 243 246 248 250 252 253 254 256 256 257 259 258 257 259 261 261 258 253 249 248 254
194 218 213 159 130 138 146 181 211 233 233 232 225 224 221 171 170 202 159 143 160 222 287 321 283 269 259 254 250 241 237 237 233 227 225 227 232 234 232 232 233 239 244 245 245 244 242 241 239 236 234 232 232 231 230 229 231 234 235 237 238 240 241 242 242 243 245 247 249 250 251 251 252 254 257 260 262 262 262 262 260 258 255 251 249 251
191 182 325 135 156 184 184 186 205 218 223 227 226 233 223 167 173 41 125 145 167 213 252 298 286 271 248 239 242 231 222 228 226 223 226 230 236 239 240 241 240 241 244 245 245 245 243 241 238 236 234 233 232 232 232 232 235 238 239 240 240 241 242 242 242 242 243 245 247 248 249 249 249 251 255 259 264 266 267 265 262 260 259 257 254 250
198 63 171 152 164 194 192 191 201 208 219 221 219 229 248 180 157 105 126 155 207 218 201 223 259 269 228 222 230 204 180 218 214 218 230 230 234 241 244 247 247 247 247 247 247 247 246 243 239 237 236 235 235 235 236 237 240 242 242 242 242 241 242 242 241 241 242 243 246 247 249 250 251 252 255 259 263 266 267 267 266 264 261 260 256 250
149 114 175 160 160 179 195 211 201 201 224 223 217 219 211 214 154 139 157 187 234 230 152 194 242 261 217 208 213 189 190 216 199 208 225 216 215 228 237 243 246 247 248 247 246 246 246 245 242 240 238 237 238 238 238 239 239 240 240 240 240 241 241 241 241 241 242 243 245 247 249 251 252 252 253 256 260 262 262 264 266 264 262 261 259 256
121 144 159 159 166 174 193 218 193 193 223 224 11 230 181 186 191 167 179 213 242 50 118 198 240 266 260 221 161 160 210 226 211 211 214 206 203 211 226 237 242 246 247 245 244 243 243 243 240 238 238 237 237 238 238 236 235 235 236 236 236 237 238 239 239 241 242 243 245 247 248 248 247 248 251 255 257 259 261 261 263 263 262 261 259 258
102 157 167 159 172 190 197 241 176 190 217 228 25 307 158 171 198 184 199 222 238 329 223 197 191 248 258 233 144 158 232 239 229 214 198 194 198 201 223 239 245 248 247 244 240 238 237 236 235 234 236 235 234 235 235 234 232 231 231 231 232 234 236 237 237 239 240 241 241 241 241 242 243 246 250 254 257 259 261 261 262 263 263 262 260 259
43 157 173 166 183 190 138 30 16 206 207 151 146 102 94 105 150 177 216 220 185 246 244 192 179 234 264 242 196 178 227 238 234 208 178 177 182 189 224 245 252 251 248 242 234 232 231 229 227 226 227 228 227 227 227 225 223 222 222 224 227 230 233 234 234 235 233 232 232 232 235 237 241 245 248 251 256 259 263 266 266 267 266 265 264 262
40 89 51 109 178 136 98 63 21 7 120 141 153 120 103 119 131 167 222 222 221 235 238 152 166 244 272 252 217 190 233 245 228 189 160 164 169 175 219 246 253 249 245 237 226 225 224 216 211 212 213 213 210 207 206 204 201 202 205 210 214 219 222 222 221 220 219 219 222 225 230 234 238 243 248 254 260 264 268 271 271 271 271 272 272 270
85 120 140 79 90 134 115 89 43 31 144 154 164 146 134 139 149 197 195 197 236 234 190 72 38 244 242 242 208 93 10 324 260 206 176 169 161 154 165 232 241 232 224 218 212 210 205 196 193 197 198 193 188 185 183 182 183 184 187 191 194 196 198 200 200 203 206 208 212 218 225 231 238 246 256 266 273 276 277 278 276 275 277 279 280 279
119 115 122 85 116 200 178 124 86 70 190 202 184 168 179 183 177 212 203 200 231 227 103 99 312 241 245 248 246 268 272 205 237 253 159 155 145 133 122 114 210 198 184 183 186 184 180 179 179 181 180 176 173 170 170 171 171 172 173 174 177 178 179 182 183 185 185 185 188 195 207 221 239 256 271 282 287 288 288 289 288 285 286 286 286 284
159 116 156 149 171 213 212 173 147 172 193 198 192 186 199 192 185 208 204 208 225 205 87 178 220 253 261 259 249 261 258 170 161 126 112 125 123 115 138 166 174 172 167 166 168 168 167 168 168 167 166 164 163 163 162 163 163 164 165 165 166 166 164 162 159 156 153 153 154 157 168 198 248 274 286 292 295 297 297 297 298 297 297 296 295 293
187 198 178 167 155 185 202 214 156 168 183 196 204 207 213 208 209 211 205 212 203 119 112 189 207 232 236 136 180 212 56 125 153 158 151 141 139 131 164 172 162 161 163 160 160 162 162 162 161 160 161 160 160 159 159 158 158 157 156 154 152 149 146 143 140 138 138 137 135 134 136 162 287 296 299 301 301 305 306 305 305 305 303 303 302 300
197 215 145 72 62 167 178 286 356 151 174 187 345 236 229 233 218 186 204 198 153 73 169 187 235 247 252 287 202 160 136 152 164 173 188 187 179 170 165 165 158 158 159 156 156 158 157 157 158 158 158 158 156 156 154 152 151 149 147 144 142 140 137 136 136 135 134 132 130 129 129 261 305 306 303 306 308 311 314 314 314 312 310 308 306 305
192 195 51 54 63 94 69 23 352 316 173 162 178 198 216 354 69 128 162 92 60 272 209 170 235 256 266 272 232 162 162 173 171 180 185 183 189 185 169 167 166 162 158 155 154 154 154 155 155 155 154 153 152 151 149 147 145 144 143 141 139 139 138 138 138 138 139 141 149 166 208 257 278 289 295 301 305 309 312 314 315 314 314 315 316 315
180 138 37 54 116 75 22 36 49 7 25 137 182 178 143 28 32 169 234 168 194 249 224 170 222 239 240 248 162 144 181 180 175 186 177 170 182 186 176 174 173 166 161 158 155 154 154 154 153 153 152 151 149 149 147 145 145 143 143 142 141 140 140 140 141 144 154 168 187 212 236 251 266 278 288 294 297 301 304 304 306 308 313 320 324 324
174 159 51 14 89 99 57 144 151 66 355 355 255 213 135 214 214 191 218 222 211 236 243 206 216 233 233 225 171 170 189 184 183 190 185 175 176 182 179 175 175 172 166 162 159 156 156 155 155 154 153 152 151 150 148 148 148 147 146 145 144 144 144 146 153 161 175 198 219 235 247 256 268 278 284 289 291 293 295 297 300 304 309 315 320 324
160 208 195 47 33 108 116 212 194 182 171 345 290 250 86 261 231 200 210 230 233 237 247 224 204 223 223 220 228 212 192 190 191 192 194 187 179 181 179 174 177 176 170 164 161 160 160 160 160 159 158 157 155 154 154 155 154 152 151 150 150 152 153 158 169 183 200 220 234 245 258 266 275 281 283 285 287 290 292 294 297 300 306 314 321 329
112 232 188 108 51 162 174 210 208 188 174 181 194 184 185 202 221 263 236 232 245 240 245 245 236 239 202 201 225 225 209 197 193 191 190 181 174 177 179 180 180 177 172 168 166 166 165 165 164 163 162 162 162 162 162 162 161 158 157 158 160 162 168 177 188 201 216 231 242 253 263 270 275 278 279 280 282 285 286 285 291 301 315 333 343 347
136 186 157 139 175 191 183 26 334 233 164 192 201 192 196 189 165 211 219 191 223 244 246 262 263 259 114 155 229 223 187 89 181 187 172 166 171 176 181 184 183 178 176 174 171 171 170 170 170 169 168 169 170 170 169 167 167 166 167 169 172 176 182 190 200 210 222 233 241 250 257 262 267 268 269 271 270 269 271 276 298 328 345 351 353 353
74 116 122 128 165 185 126 57 53 1 288 253 246 220 211 200 192 213 218 185 186 217 309 311 277 265 92 50 316 342 78 57 48 164 151 168 181 184 184 185 183 181 180 178 176 176 176 176 176 174 175 176 176 176 174 173 173 174 177 179 181 187 191 197 206 213 224 232 237 246 253 256 258 257 254 253 249 252 266 304 335 345 347 348 348 347
64 122 126 115 94 53 113 116 108 149 236 248 241 224 218 211 202 214 244 219 189 181 179 233 251 252 163 78 345 356 29 39 238 212 166 166 181 185 184 185 184 183 183 181 181 181 181 182 181 181 181 181 181 181 179 180 181 182 186 187 189 193 197 202 209 217 226 234 238 242 244 244 243 239 238 238 244 272 316 334 340 343 343 344 345 345
170 167 151 142 144 164 193 193 195 200 209 225 223 212 215 219 182 95 296 268 231 194 195 222 249 249 216 83 179 179 205 239 238 213 192 171 176 182 182 183 184 185 185 184 184 185 186 186 186 186 185 184 185 185 185 187 189 190 192 193 195 198 201 205 211 218 224 228 231 231 230 229 228 229 236 251 283 314 330 336 338 339 340 341 343 345
168 189 164 166 180 184 195 207 202 190 188 209 219 208 210 211 198 188 218 240 229 201 195 217 249 252 211 114 202 185 176 207 212 199 197 190 184 183 181 182 185 185 185 186 187 188 189 189 189 189 188 188 189 190 191 193 194 195 196 197 199 201 204 206 209 213 217 219 220 220 218 217 220 226 242 266 294 312 325 332 333 334 335 337 339 341
144 219 188 197 205 202 213 219 199 171 161 187 203 205 204 204 202 204 217 225 222 221 214 215 235 248 240 183 196 204 193 200 199 188 192 192 185 184 183 184 185 186 187 188 189 190 190 190 191 191 191 193 193 193 195 196 197 197 198 199 201 202 204 204 205 207 209 210 210 208 206 206 209 218 232 254 287 314 324 327 328 330 331 331 332 332
115 199 203 216 220 220 225 219 194 175 177 194 202 205 207 203 199 201 215 225 223 228 237 226 226 241 243 209 192 203 204 202 198 190 193 191 184 184 186 186 187 187 188 190 190 190 191 192 193 194 195 195 195 196 197 198 199 198 199 200 200 201 202 202 201 202 203 203 201 200 199 197 202 211 224 261 300 314 318 319 319 320 321 321 321 321
168 195 203 220 230 235 228 183 178 186 195 207 207 205 205 199 193 198 215 228 225 222 239 238 229 234 241 228 212 206 197 198 202 195 192 187 183 186 188 188 189 190 191 191 192 192 193 195 196 196 197 196 196 197 198 199 199 197 198 199 199 200 200 199 198 197 196 197 196 195 195 193 197 208 229 272 295 301 304 307 309 310 311 312 312 313
221 197 199 208 233 241 215 145 175 198 202 214 218 211 196 187 192 201 214 227 228 226 237 244 243 244 243 232 229 215 187 182 186 182 186 190 191 191 191 190 191 193 193 193 194 195 197 198 198 198 197 197 197 199 201 201 199 198 197 198 198 199 199 197 196 193 191 193 193 191 189 189 196 215 242 270 284 292 298 301 304 306 308 310 311 313
219 198 192 190 234 247 220 169 186 203 209 219 220 206 177 177 194 206 217 228 230 233 241 248 254 260 250 226 220 198 164 157 161 180 195 201 200 195 191 192 195 196 196 196 197 198 199 199 199 198 198 198 199 202 203 201 199 198 197 198 198 198 197 195 193 190 188 188 187 186 186 193 209 234 259 279 290 298 303 306 308 311 313 314 315 315
190 194 186 182 218 240 226 210 198 180 219 240 228 192 177 183 195 202 213 220 218 226 239 245 250 255 247 217 198 176 161 162 177 196 202 204 203 200 197 197 199 199 199 199 200 201 201 200 199 199 198 200 202 203 202 200 199 198 197 197 197 196 194 193 189 185 182 182 184 185 194 214 238 268 284 297 305 309 312 314 315 316 317 317 317 317
180 184 183 178 208 230 224 215 192 147 204 249 229 200 193 198 206 208 217 222 215 216 228 233 239 245 235 187 192 188 171 177 196 209 213 211 207 206 204 202 202 202 202 203 203 203 202 200 200 200 201 202 203 201 200 200 200 198 196 194 194 192 189 186 181 178 178 183 190 200 226 261 283 299 307 312 316 317 319 319 318 318 318 318 318 317
187 201 199 178 210 229 193 136 138 187 224 237 224 206 202 205 208 209 216 221 215 215 225 234 240 242 212 180 199 200 190 203 216 223 228 226 217 212 209 206 205 206 206 207 207 205 203 201 201 202 202 203 202 201 200 199 197 194 192 190 189 186 181 177 175 179 188 198 215 244 280 299 308 314 318 320 322 321 320 319 319 318 318 318 317 317
184 200 208 195 214 223 131 126 178 221 230 234 230 216 210 212 210 209 221 223 215 213 223 235 242 240 219 198 203 207 212 218 222 226 231 233 226 218 213 208 208 210 210 211 209 206 205 204 203 202 202 201 201 199 197 195 192 189 187 186 184 181 177 178 182 193 210 231 267 293 305 313 316 319 321 322 321 321 319 319 319 319 318 318 318 318
182 188 199 206 202 172 147 177 205 237 234 218 224 216 206 212 212 216 232 232 219 214 218 228 238 239 233 224 214 212 217 219 220 226 231 233 231 224 218 215 214 215 215 215 212 209 207 206 205 203 201 199 198 196 194 191 188 185 183 183 183 182 181 185 195 215 245 273 295 307 312 315 317 319 321 321 320 320 320 320 320 320 319 319 319 319
190 189 193 205 201 193 205 204 219 288 278 199 201 196 189 197 199 206 233 241 226 218 218 222 232 234 235 233 216 195 196 205 223 233 233 233 235 231 226 224 222 221 220 217 214 210 208 207 204 203 201 198 195 193 191 188 185 183 184 186 186 186 186 193 213 240 271 294 304 310 314 316 319 321 321 321 322 321 322 321 320 320 319 318 317 317
209 205 197 207 205 197 222 227 221 245 242 225 207 178 180 194 195 195 227 252 236 216 212 217 227 231 235 231 188 163 177 204 242 238 233 233 235 237 234 228 225 224 223 220 215 210 208 206 203 201 198 195 192 189 187 187 186 186 188 189 188 187 192 208 235 262 288 307 312 316 320 321 322 323 322 322 322 321 321 320 319 318 317 316 316 316
194 248 214 220 215 196 217 234 217 224 243 236 177 133 167 184 174 150 199 248 249 225 213 213 222 231 236 219 169 154 171 204 233 239 236 233 231 233 235 230 224 222 221 219 216 211 207 203 198 195 192 190 189 187 187 188 188 189 190 190 190 193 204 226 259 290 306 317 319 321 323 323 322 322 320 320 320 319 318 317 316 316 316 315 315 315
180 201 204 215 222 210 215 231 229 242 254 214 152 148 166 164 147 134 204 246 250 222 210 211 219 230 233 210 177 168 196 215 233 242 237 231 228 228 230 230 225 220 215 212 210 207 203 198 193 190 187 186 187 187 188 189 189 190 191 192 195 204 223 253 292 311 316 320 321 321 322 320 319 318 317 316 316 316 315 315 314 315 315 315 315 315
180 193 197 207 220 219 217 228 246 257 241 167 144 154 150 144 148 183 217 240 169 170 199 216 222 228 226 205 187 199 218 222 233 243 233 225 224 223 223 223 221 216 211 206 203 200 196 191 188 187 185 184 186 186 188 190 190 192 194 195 203 218 244 282 308 315 316 318 318 318 318 315 314 314 314 313 313 313 314 315 315 315 316 316 316 316
178 186 197 205 210 216 222 227 248 258 225 151 132 152 152 149 192 213 194 111 112 160 200 217 221 226 225 211 204 213 219 222 230 236 226 219 219 218 217 215 211 207 204 200 195 193 190 186 184 184 184 184 186 187 189 190 192 195 197 200 213 237 274 302 310 310 311 314 313 313 312 311 311 311 311 312 312 312 314 316 317 318 318 318 318 318
174 174 190 201 197 207 229 210 226 268 195 135 127 141 170 178 232 173 154 155 174 184 204 214 219 226 226 218 213 214 216 218 223 226 223 217 216 215 212 209 206 202 197 192 189 187 186 184 182 182 184 185 186 188 190 192 194 198 202 210 232 270 295 303 305 306 309 309 308 308 308 307 308 309 309 311 313 314 316 317 318 319 319 319 320 320
174 176 186 198 190 191 211 201 207 295 150 148 146 175 205 197 182 126 155 182 191 187 200 212 221 225 224 220 214 209 211 216 220 221 218 213 208 207 204 200 198 194 189 186 184 182 182 183 182 181 183 184 187 190 192 193 196 202 210 229 259 284 294 297 300 303 304 303 302 302 303 304 306 308 310 313 315 317 318 319 320 321 321 322 322 322
188 187 182 197 199 194 214 221 201 150 169 174 171 170 187 194 203 169 153 164 171 173 185 209 228 231 229 222 212 206 210 215 215 214 211 206 200 198 195 192 190 188 184 182 180 179 179 182 182 182 183 185 187 190 192 194 200 208 224 249 269 280 287 291 294 296 295 295 296 297 300 303 306 310 314 317 318 320 321 322 323 323 323 324 324 323
200 190 153 157 193 196 248 253 238 191 186 200 217 160 177 194 207 200 164 151 161 175 201 241 255 256 248 236 221 212 211 211 208 205 201 199 196 193 191 189 186 184 182 180 179 179 179 180 181 182 184 186 187 190 194 199 205 217 238 257 266 274 280 281 284 286 288 292 296 298 303 308 312 315 319 320 321 323 323 324 324 324 324 325 325 324
239 196 174 167 177 187 226 239 234 220 200 206 218 211 189 196 207 213 211 204 213 243 263 264 264 262 253 242 230 219 211 207 204 200 196 196 195 192 190 187 183 182 182 181 181 181 180 180 181 182 185 188 190 192 197 205 215 229 244 253 260 268 274 277 283 289 293 298 302 305 309 314 317 319 321 322 323 324 324 325 325 325 325 325 325 324
190 175 181 195 191 196 221 232 227 218 201 200 214 221 218 213 215 222 229 234 245 260 264 262 261 257 249 240 228 218 210 205 204 201 197 196 195 192 190 187 184 183 182 182 182 182 181 182 184 185 187 191 194 198 204 213 224 236 246 255 263 271 278 286 293 297 299 302 305 310 315 318 320 322 323 324 324 324 324 325 324 324 325 325 325 324
143 161 174 184 198 228 247 205 118 113 204 208 222 225 224 226 230 233 236 239 244 250 254 257 258 253 247 238 226 218 211 205 205 204 200 196 195 194 191 188 186 185 184 183 182 182 182 184 187 189 193 196 200 207 214 221 231 241 250 260 270 279 286 292 293 294 297 302 309 315 318 320 322 323 323 323 323 323 324 324 324 324 325 325 324 323
170 186 191 173 190 234 247 164 150 173 254 225 227 232 231 229 232 237 240 242 245 249 254 259 259 251 242 234 228 223 215 205 202 204 202 199 197 196 193 190 188 186 185 185 184 184 186 188 191 195 199 203 208 215 223 229 236 245 256 266 274 279 281 282 283 289 299 308 313 317 319 320 321 322 322 322 322 323 323 324 324 324 323 323 322 321
207 208 203 201 215 238 251 151 175 207 246 244 240 250 249 242 240 242 246 249 253 256 260 262 260 250 236 225 221 221 218 210 204 203 202 201 199 197 194 191 189 187 187 187 188 189 191 194 198 201 204 209 215 221 228 235 242 250 259 265 266 266 267 272 283 295 304 310 314 316 318 319 320 321 322 322 323 323 324 324 324 323 322 322 321 320